Hourly Weather Lugi

Today, 20 June, Sunday

Time Temperature Precipitation Wind Pressure Humidity
00:00 +18°C° 0 mm 2 mps 745 mmHg 92%
01:00 +18°C° 0 mm 2 mps 745 mmHg 93%
02:00 +18°C° 0 mm 2 mps 745 mmHg 95%
03:00 +18°C° 0 mm 2 mps 745 mmHg 94%
04:00 +19°C° 0 mm 1 mps 745 mmHg 93%
05:00 +19°C° 0 mm 1 mps 745 mmHg 92%
06:00 +20°C° 0 mm 2 mps 745 mmHg 86%
07:00 +23°C° 0 mm 2 mps 745 mmHg 79%
08:00 +24°C° 0 mm 2 mps 745 mmHg 73%
09:00 +25°C° 0 mm 2 mps 745 mmHg 67%
10:00 +27°C° 0 mm 3 mps 745 mmHg 62%
11:00 +28°C° 0 mm 3 mps 744 mmHg 56%
12:00 +28°C° 0 mm 3 mps 744 mmHg 53%
13:00 +29°C° 0 mm 2 mps 744 mmHg 50%
14:00 +29°C° 0 mm 2 mps 744 mmHg 47%
15:00 +29°C° 0 mm 2 mps 743 mmHg 51%
16:00 +29°C° 0 mm 2 mps 743 mmHg 54%
17:00 +28°C° 0 mm 1 mps 743 mmHg 58%
18:00 +26°C° 0 mm 2 mps 743 mmHg 65%
19:00 +24°C° 0 mm 2 mps 743 mmHg 72%
20:00 +21°C° 0 mm 2 mps 743 mmHg 79%
21:00 +20°C° 0 mm 2 mps 743 mmHg 82%
22:00 +19°C° 0 mm 2 mps 743 mmHg 85%
23:00 +18°C° 0 mm 2 mps 743 mmHg 88%

Tomorrow, 21 June, Monday

Time Temperature Precipitation Wind Pressure Humidity
00:00 +18°C° 0 mm 2 mps 743 mmHg 89%
01:00 +18°C° 0 mm 2 mps 743 mmHg 91%
02:00 +17°C° 0 mm 2 mps 743 mmHg 92%
03:00 +17°C° 0 mm 2 mps 743 mmHg 92%
04:00 +18°C° 0 mm 2 mps 743 mmHg 91%
05:00 +18°C° 0 mm 2 mps 743 mmHg 91%
06:00 +19°C° 0 mm 2 mps 743 mmHg 84%
07:00 +21°C° 0 mm 3 mps 743 mmHg 77%
08:00 +24°C° 0 mm 3 mps 743 mmHg 70%
09:00 +25°C° 0 mm 3 mps 743 mmHg 64%
10:00 +26°C° 0 mm 4 mps 743 mmHg 58%
11:00 +28°C° 0 mm 4 mps 742 mmHg 52%
12:00 +29°C° 0 mm 4 mps 742 mmHg 51%
13:00 +29°C° 0 mm 4 mps 742 mmHg 49%
14:00 +30°C° 0 mm 4 mps 742 mmHg 48%
15:00 +30°C° 0 mm 4 mps 742 mmHg 51%
16:00 +30°C° 0 mm 3 mps 742 mmHg 55%
17:00 +29°C° 0 mm 3 mps 741 mmHg 59%
18:00 +27°C° 0 mm 3 mps 741 mmHg 66%
19:00 +26°C° 0 mm 3 mps 741 mmHg 74%
20:00 +24°C° 0 mm 3 mps 741 mmHg 82%
21:00 +22°C° 0 mm 3 mps 741 mmHg 85%
22:00 +21°C° 0 mm 3 mps 742 mmHg 89%
23:00 +20°C° 0 mm 3 mps 742 mmHg 93%

Day after tomorrow, 22 June, Tuesday

Time Temperature Precipitation Wind Pressure Humidity
00:00 +19°C° 0 mm 3 mps 742 mmHg 94%
01:00 +19°C° 0 mm 2 mps 742 mmHg 95%
02:00 +18°C° 0 mm 2 mps 741 mmHg 96%
03:00 +19°C° 0 mm 2 mps 742 mmHg 95%
04:00 +19°C° 0 mm 3 mps 742 mmHg 93%
05:00 +20°C° 0 mm 3 mps 742 mmHg 92%
06:00 +21°C° 0 mm 3 mps 742 mmHg 83%
07:00 +24°C° 0 mm 3 mps 742 mmHg 74%
08:00 +26°C° 0 mm 4 mps 742 mmHg 66%
09:00 +28°C° 0 mm 4 mps 742 mmHg 60%
10:00 +29°C° 0 mm 4 mps 742 mmHg 55%
11:00 +32°C° 0 mm 5 mps 742 mmHg 49%
12:00 +32°C° 0 mm 5 mps 742 mmHg 48%
13:00 +33°C° 0 mm 5 mps 742 mmHg 47%
14:00 +33°C° 0 mm 5 mps 742 mmHg 46%
15:00 +33°C° 0 mm 4 mps 742 mmHg 50%
16:00 +32°C° 0 mm 4 mps 742 mmHg 54%
17:00 +32°C° 0 mm 4 mps 742 mmHg 57%
18:00 +29°C° 0 mm 3 mps 742 mmHg 65%
19:00 +27°C° 0 mm 3 mps 742 mmHg 73%
20:00 +25°C° 0 mm 3 mps 742 mmHg 81%
21:00 +24°C° 0 mm 3 mps 742 mmHg 85%
22:00 +23°C° 0 mm 2 mps 742 mmHg 90%
23:00 +21°C° 0 mm 2 mps 742 mmHg 95%

23 June, Wednesday

Time Temperature Precipitation Wind Pressure Humidity
00:00 +21°C° 0 mm 2 mps 742 mmHg 95%
01:00 +21°C° 0 mm 2 mps 742 mmHg 96%
02:00 +20°C° 0 mm 2 mps 742 mmHg 96%
03:00 +21°C° 0 mm 2 mps 742 mmHg 95%
04:00 +21°C° 0 mm 2 mps 742 mmHg 95%
05:00 +21°C° 0 mm 2 mps 742 mmHg 94%
06:00 +24°C° 0 mm 2 mps 743 mmHg 86%
07:00 +26°C° 0 mm 3 mps 743 mmHg 78%
08:00 +28°C° 0 mm 3 mps 743 mmHg 69%
09:00 +29°C° 0 mm 3 mps 743 mmHg 63%
10:00 +30°C° 0 mm 3 mps 743 mmHg 57%
11:00 +32°C° 0 mm 4 mps 743 mmHg 51%
12:00 +33°C° 0 mm 3 mps 743 mmHg 48%
13:00 +34°C° 0 mm 3 mps 743 mmHg 45%
14:00 +34°C° 0 mm 3 mps 743 mmHg 42%
15:00 +34°C° 0 mm 3 mps 743 mmHg 46%
16:00 +34°C° 0 mm 3 mps 742 mmHg 49%
17:00 +32°C° 0 mm 2 mps 742 mmHg 53%
18:00 +30°C° 0 mm 2 mps 742 mmHg 61%
19:00 +28°C° 0 mm 2 mps 742 mmHg 70%
20:00 +25°C° 0 mm 3 mps 743 mmHg 78%
21:00 +25°C° 0 mm 2 mps 743 mmHg 82%
22:00 +24°C° 0 mm 2 mps 742 mmHg 85%
23:00 +23°C° 0 mm 2 mps 742 mmHg 89%

24 June, Thursday

Time Temperature Precipitation Wind Pressure Humidity
00:00 +23°C° 0 mm 2 mps 743 mmHg 91%
01:00 +21°C° 0 mm 2 mps 743 mmHg 93%
02:00 +22°C° 0 mm 1 mps 743 mmHg 95%
03:00 +22°C° 0 mm 1 mps 743 mmHg 94%
04:00 +23°C° 0 mm 1 mps 743 mmHg 93%
05:00 +23°C° 0 mm 1 mps 743 mmHg 91%
06:00 +25°C° 0 mm 2 mps 743 mmHg 83%
07:00 +26°C° 0 mm 2 mps 743 mmHg 74%
08:00 +28°C° 0 mm 2 mps 743 mmHg 66%
09:00 +29°C° 0 mm 2 mps 743 mmHg 60%
10:00 +31°C° 0 mm 2 mps 743 mmHg 54%
11:00 +32°C° 0 mm 2 mps 743 mmHg 49%
12:00 +32°C° 0 mm 2 mps 743 mmHg 47%
13:00 +34°C° 0 mm 3 mps 743 mmHg 45%
14:00 +34°C° 0 mm 3 mps 743 mmHg 43%
15:00 +34°C° 0 mm 2 mps 743 mmHg 48%
16:00 +32°C° 0 mm 2 mps 743 mmHg 52%
17:00 +32°C° 0 mm 2 mps 743 mmHg 57%
18:00 +30°C° 0 mm 2 mps 742 mmHg 63%
19:00 +28°C° 0 mm 2 mps 742 mmHg 68%
20:00 +26°C° 0 mm 2 mps 742 mmHg 74%
21:00 +25°C° 0.1 mm 2 mps 742 mmHg 77%
22:00 +24°C° 0.1 mm 1 mps 742 mmHg 80%
23:00 +24°C° 0.1 mm 1 mps 742 mmHg 83%

25 June, Friday

Time Temperature Precipitation Wind Pressure Humidity
00:00 +23°C° 0.1 mm 1 mps 742 mmHg 84%
01:00 +23°C° 0.1 mm 1 mps 742 mmHg 85%
02:00 +22°C° 0.1 mm 1 mps 742 mmHg 86%
03:00 +22°C° 0 mm 1 mps 742 mmHg 87%
04:00 +23°C° 0 mm 1 mps 742 mmHg 88%
05:00 +23°C° 0 mm 2 mps 742 mmHg 88%
06:00 +25°C° 0 mm 2 mps 742 mmHg 82%
07:00 +27°C° 0 mm 2 mps 742 mmHg 75%
08:00 +29°C° 0 mm 3 mps 742 mmHg 69%
09:00 +30°C° 0 mm 3 mps 742 mmHg 62%
10:00 +31°C° 0 mm 3 mps 742 mmHg 56%
11:00 +33°C° 0 mm 3 mps 742 mmHg 49%
12:00 +34°C° 0 mm 3 mps 742 mmHg 47%
13:00 +34°C° 0 mm 3 mps 742 mmHg 45%
14:00 +35°C° 0 mm 3 mps 742 mmHg 43%
15:00 +34°C° 0.1 mm 3 mps 741 mmHg 48%
16:00 +33°C° 0.1 mm 3 mps 741 mmHg 53%
17:00 +31°C° 0.1 mm 3 mps 740 mmHg 58%
18:00 +27°C° 1.7 mm 3 mps 740 mmHg 69%
19:00 +22°C° 1.7 mm 3 mps 741 mmHg 81%
20:00 +18°C° 1.7 mm 3 mps 741 mmHg 93%
21:00 +18°C° 0.4 mm 3 mps 741 mmHg 92%
22:00 +19°C° 0.4 mm 2 mps 741 mmHg 92%
23:00 +19°C° 0.4 mm 2 mps 741 mmHg 91%
Show more

We Need Your Consent

Meteoprog and our Service Providers may store and access personal data such as cookies, device identifiers or other similar technologies on your device and process such data to personalise content and ads, as well as provide social media features and to analyse the traffic.

  • Store and/or access information on your device

    Cookies, device identifiers or other information can be stored or accessed on your device for the purposes indicated above.

  • Personalised ads and content, ad and content measurement, audience insights, and products development

    Ads and content can be personalised based on a profile. More data can be added to better personalise ads and content. Ad and content performance can be measured. Insights about the audience who saw the ads and content can be derived. Such data can be used to develop or improve user’s experience, systems and software.

By clicking ‘I Agree’ you will allow the use of indicated cookies, device identifiers, web beacons or other similar technologies. Your settings can be changed in the browser on your device.

For certain purposes, legitimate interests may be relied on, rather than consent. You can read more about this in our Privacy and Cookie Policy.